Погода в Аттавапискате

Канада     52°55′33″N   82°25′43″W
темп.,
°C
ветер,
м/с
пор.,
м/с
влажн.,
%
обл.,
%
осадки,
мм/ч
давл.,
гПа
погр.,
м
24 июня, чт
чт2423:00+17юз91790100 0.4 993835
02:00+15юз61395100 1.3 992635
05:00+15зсз4109590 2.3 995498
08:00+13сз47835 2.4 1001597
11:00+16з3456100 0.0 1004992
14:00+19зюз585397 0.1 10041917
17:00+18ссз146060 0.4 1005722
20:00+16юв227226 0.6 1005198
25 июня, пт
пт2523:00+13сз117835 0.0 100713
02:00+11ю227810 0.0 100714
05:00+10юз34767 0.0 100857
08:00+16юз35565 0.0 1009206
11:00+22зюз37298 0.0 10081607
14:00+24зюз69270 0.0 10072227
17:00+25з692619 0.0 10072218
20:00+23юз244318 0.0 100791
26 июня, сб
сб2623:00+12св6116973 0.0 1009249
02:00+8всв37796 0.0 1009136
05:00+7в368092 0.0 1010123
08:00+12в2364100 0.0 1009184
11:00+21юв1444100 0.0 1007569
14:00+16св7655100 0.0 1008353
17:00+13св7959100 0.0 1009401
20:00+9ссв7137377 0.0 1011496
27 июня, вс
вс2723:00+5ссв51371100 0.0 1013417
02:00+6ссв4984100 0.1 1013398
05:00+4с39880 0.4 1014302
08:00+7ссв467249 0.4 1014474
11:00+13св455219 0.0 10151071
14:00+14всв545094 0.0 10151106
17:00+13в43505 0.0 1016561
20:00+11вюв345442 0.0 1016298
28 июня, пн
пн2823:00+7юв377231 0.0 1016122
02:00+7ююв397084 0.0 1017194
05:00+7ю31169100 0.0 1017213
08:00+13ююз496167 0.0 1017301
11:00+20юз574491 0.0 10171060
14:00+24зюз463685 0.0 10162353
17:00+21в3447100 0.0 1016891
20:00+18с246335 0.3 1016137